Time,TemperatureF,DewpointF,PressureIn,WindDirection,WindDirectionDegrees,WindSpeedMPH,WindSpeedGustMPH,Humidity,HourlyPrecipIn,Conditions,Clouds,dailyrainin,SoftwareType,DateUTC
2013-03-04 00:01:00,34.9,31.8,30.31,West,270,0.0,1.5,88,0.00,,,0.02,NetBSD+Arduino,2013-03-04 08:01:00,
2013-03-04 00:07:00,35.0,31.1,30.30,NE,45,0.0,1.5,85,0.00,,,0.00,NetBSD+Arduino,2013-03-04 08:07:00,
2013-03-04 00:12:00,34.8,31.5,30.31,NE,45,0.0,0.0,87,0.00,,,0.00,NetBSD+Arduino,2013-03-04 08:12:00,
2013-03-04 00:17:00,34.6,31.0,30.30,NE,45,1.5,3.0,86,0.00,,,0.00,NetBSD+Arduino,2013-03-04 08:17:00,
2013-03-04 00:22:00,34.4,30.9,30.30,NE,45,1.1,3.0,87,0.00,,,0.00,NetBSD+Arduino,2013-03-04 08:22:00,
2013-03-04 00:27:00,34.1,31.1,30.30,NE,45,0.6,3.0,88,0.00,,,0.00,NetBSD+Arduino,2013-03-04 08:27:00,
2013-03-04 00:32:00,34.0,31.3,30.30,North,0,1.1,1.5,89,0.00,,,0.00,NetBSD+Arduino,2013-03-04 08:32:00,
2013-03-04 00:37:00,33.8,31.0,30.30,NE,45,1.8,3.0,89,0.00,,,0.00,NetBSD+Arduino,2013-03-04 08:37:00,
2013-03-04 00:42:00,33.7,31.0,30.30,North,0,0.9,3.0,89,0.00,,,0.00,NetBSD+Arduino,2013-03-04 08:42:00,
2013-03-04 00:47:00,33.7,30.9,30.30,NE,45,0.0,3.0,89,0.00,,,0.00,NetBSD+Arduino,2013-03-04 08:47:00,
2013-03-04 00:52:00,33.6,30.7,30.30,NE,45,0.7,1.5,89,0.00,,,0.00,NetBSD+Arduino,2013-03-04 08:52:00,
2013-03-04 00:57:00,33.8,30.8,30.30,North,0,0.7,1.5,88,0.00,,,0.00,NetBSD+Arduino,2013-03-04 08:57:00,
2013-03-04 01:02:00,33.5,30.6,30.30,North,0,0.5,1.5,89,0.00,,,0.00,NetBSD+Arduino,2013-03-04 09:02:00,
2013-03-04 01:07:00,33.3,30.5,30.30,North,0,0.9,1.5,89,0.00,,,0.00,NetBSD+Arduino,2013-03-04 09:07:00,
2013-03-04 01:12:00,33.2,30.7,30.30,NW,315,0.0,3.0,90,0.00,,,0.00,NetBSD+Arduino,2013-03-04 09:12:00,
2013-03-04 01:17:00,33.5,30.7,30.29,NW,315,0.0,0.0,89,0.00,,,0.00,NetBSD+Arduino,2013-03-04 09:17:00,
2013-03-04 01:22:00,33.3,30.5,30.30,West,270,0.0,0.0,88,0.00,,,0.00,NetBSD+Arduino,2013-03-04 09:22:00,
2013-03-04 01:27:00,33.3,30.6,30.29,NW,315,0.0,0.0,89,0.00,,,0.00,NetBSD+Arduino,2013-03-04 09:27:00,
2013-03-04 01:32:00,33.2,30.4,30.30,NW,315,0.0,0.0,89,0.00,,,0.00,NetBSD+Arduino,2013-03-04 09:32:00,
2013-03-04 01:37:00,33.1,30.5,30.30,North,0,0.5,1.5,89,0.00,,,0.00,NetBSD+Arduino,2013-03-04 09:37:00,
2013-03-04 01:42:00,33.1,30.5,30.30,North,0,1.9,3.0,89,0.00,,,0.00,NetBSD+Arduino,2013-03-04 09:42:00,
2013-03-04 01:47:00,33.1,30.5,30.30,NE,45,2.2,3.0,89,0.00,,,0.00,NetBSD+Arduino,2013-03-04 09:47:00,
2013-03-04 01:52:00,33.0,30.3,30.30,NE,45,3.0,3.0,89,0.00,,,0.00,NetBSD+Arduino,2013-03-04 09:52:00,
2013-03-04 01:57:00,32.9,30.3,30.30,NE,45,1.9,4.5,89,0.00,,,0.00,NetBSD+Arduino,2013-03-04 09:57:00,
2013-03-04 02:02:00,32.8,30.3,30.30,NE,45,1.5,3.0,90,0.00,,,0.00,NetBSD+Arduino,2013-03-04 10:02:00,
2013-03-04 02:07:00,32.7,29.9,30.30,North,0,1.5,4.5,89,0.00,,,0.00,NetBSD+Arduino,2013-03-04 10:07:00,
2013-03-04 02:12:00,32.7,30.3,30.30,NW,315,1.2,3.0,90,0.00,,,0.00,NetBSD+Arduino,2013-03-04 10:12:00,
2013-03-04 02:17:00,32.6,30.5,30.30,NW,315,0.0,3.0,92,0.00,,,0.00,NetBSD+Arduino,2013-03-04 10:17:00,
2013-03-04 02:22:00,32.7,30.4,30.29,NW,315,1.1,3.0,91,0.00,,,0.00,NetBSD+Arduino,2013-03-04 10:22:00,
2013-03-04 02:27:00,32.7,30.3,30.29,NW,315,0.4,3.0,90,0.00,,,0.00,NetBSD+Arduino,2013-03-04 10:27:00,
2013-03-04 02:32:00,32.6,30.0,30.29,NE,45,0.0,3.0,90,0.00,,,0.00,NetBSD+Arduino,2013-03-04 10:32:00,
2013-03-04 02:37:00,32.3,30.0,30.29,North,0,0.7,4.5,90,0.00,,,0.00,NetBSD+Arduino,2013-03-04 10:37:00,
2013-03-04 02:42:00,32.3,30.0,30.29,North,0,1.0,4.5,90,0.00,,,0.00,NetBSD+Arduino,2013-03-04 10:42:00,
2013-03-04 02:47:00,32.3,30.0,30.29,NE,45,1.9,4.5,90,0.00,,,0.00,NetBSD+Arduino,2013-03-04 10:47:00,
2013-03-04 02:52:00,32.3,29.7,30.28,NE,45,0.0,4.5,89,0.00,,,0.00,NetBSD+Arduino,2013-03-04 10:52:00,
2013-03-04 02:57:00,32.3,29.5,30.28,NW,315,1.1,3.0,89,0.00,,,0.00,NetBSD+Arduino,2013-03-04 10:57:00,
2013-03-04 03:02:00,32.2,29.6,30.28,NE,45,0.0,4.5,90,0.00,,,0.00,NetBSD+Arduino,2013-03-04 11:02:00,
2013-03-04 03:07:00,32.1,29.6,30.28,North,0,1.5,4.5,90,0.00,,,0.00,NetBSD+Arduino,2013-03-04 11:07:00,
2013-03-04 03:12:00,32.1,29.6,30.28,North,0,2.6,3.0,90,0.00,,,0.00,NetBSD+Arduino,2013-03-04 11:12:00,
2013-03-04 03:17:00,31.9,29.6,30.28,NE,45,2.7,4.5,91,0.00,,,0.00,NetBSD+Arduino,2013-03-04 11:17:00,
2013-03-04 03:22:00,31.9,29.7,30.28,NE,45,4.1,4.5,91,0.00,,,0.00,NetBSD+Arduino,2013-03-04 11:22:00,
2013-03-04 03:28:00,31.9,29.8,30.27,NE,45,1.5,6.0,91,0.00,,,0.00,NetBSD+Arduino,2013-03-04 11:28:00,
2013-03-04 03:33:00,32.0,29.7,30.28,NE,45,2.2,4.5,91,0.00,,,0.00,NetBSD+Arduino,2013-03-04 11:33:00,
2013-03-04 03:38:00,32.1,29.6,30.28,North,0,3.0,6.0,90,0.00,,,0.00,NetBSD+Arduino,2013-03-04 11:38:00,
2013-03-04 03:43:00,32.2,29.6,30.28,North,0,2.0,4.5,89,0.00,,,0.00,NetBSD+Arduino,2013-03-04 11:43:00,
2013-03-04 03:48:00,32.1,29.4,30.27,NE,45,0.6,4.5,89,0.00,,,0.00,NetBSD+Arduino,2013-03-04 11:48:00,
2013-03-04 03:53:00,32.2,29.6,30.27,NE,45,2.2,4.5,89,0.00,,,0.00,NetBSD+Arduino,2013-03-04 11:53:00,
2013-03-04 03:58:00,32.1,29.4,30.27,North,0,1.5,6.0,89,0.00,,,0.00,NetBSD+Arduino,2013-03-04 11:58:00,
2013-03-04 04:03:00,32.0,29.3,30.28,North,0,2.1,6.0,89,0.00,,,0.00,NetBSD+Arduino,2013-03-04 12:03:00,
2013-03-04 04:08:00,32.1,29.4,30.27,North,0,4.5,7.5,89,0.00,,,0.00,NetBSD+Arduino,2013-03-04 12:08:00,
2013-03-04 04:13:00,32.0,29.4,30.28,North,0,1.5,6.0,89,0.00,,,0.00,NetBSD+Arduino,2013-03-04 12:13:00,
2013-03-04 04:18:00,31.9,29.4,30.28,NW,315,1.8,4.5,90,0.00,,,0.00,NetBSD+Arduino,2013-03-04 12:18:00,
2013-03-04 04:23:00,31.9,29.4,30.28,North,0,2.6,4.5,90,0.00,,,0.00,NetBSD+Arduino,2013-03-04 12:23:00,
2013-03-04 04:28:00,31.8,29.3,30.27,NE,45,0.4,4.5,90,0.00,,,0.00,NetBSD+Arduino,2013-03-04 12:28:00,
2013-03-04 04:34:00,31.7,29.3,30.28,North,0,0.7,4.5,90,0.00,,,0.00,NetBSD+Arduino,2013-03-04 12:34:00,
2013-03-04 04:39:00,31.5,29.2,30.27,North,0,1.9,4.5,90,0.00,,,0.00,NetBSD+Arduino,2013-03-04 12:39:00,
2013-03-04 04:44:00,31.7,29.2,30.27,North,0,0.5,6.0,90,0.00,,,0.00,NetBSD+Arduino,2013-03-04 12:44:00,
2013-03-04 04:49:00,31.8,29.0,30.27,NW,315,0.7,4.5,89,0.00,,,0.00,NetBSD+Arduino,2013-03-04 12:49:00,
2013-03-04 04:54:00,31.8,29.0,30.26,North,0,1.1,3.0,89,0.00,,,0.00,NetBSD+Arduino,2013-03-04 12:54:00,
2013-03-04 04:59:00,31.8,29.1,30.26,NW,315,1.1,4.5,89,0.00,,,0.00,NetBSD+Arduino,2013-03-04 12:59:00,
2013-03-04 05:04:00,31.9,29.2,30.26,NE,45,0.0,4.5,89,0.00,,,0.00,NetBSD+Arduino,2013-03-04 13:04:00,
2013-03-04 05:09:00,31.7,28.9,30.26,NE,45,0.3,3.0,89,0.00,,,0.00,NetBSD+Arduino,2013-03-04 13:09:00,
2013-03-04 05:14:00,31.5,28.8,30.26,North,0,0.7,3.0,89,0.00,,,0.00,NetBSD+Arduino,2013-03-04 13:14:00,
2013-03-04 05:19:00,31.4,28.7,30.26,North,0,0.6,3.0,89,0.00,,,0.00,NetBSD+Arduino,2013-03-04 13:19:00,
2013-03-04 05:24:00,31.3,28.9,30.26,NW,315,0.7,4.5,90,0.00,,,0.00,NetBSD+Arduino,2013-03-04 13:24:00,
2013-03-04 05:29:00,31.2,28.7,30.26,North,0,1.5,4.5,90,0.00,,,0.00,NetBSD+Arduino,2013-03-04 13:29:00,
2013-03-04 05:34:00,31.2,28.8,30.25,North,0,1.9,4.5,90,0.00,,,0.00,NetBSD+Arduino,2013-03-04 13:34:00,
2013-03-04 05:39:00,31.2,28.9,30.25,NW,315,1.8,4.5,90,0.00,,,0.00,NetBSD+Arduino,2013-03-04 13:39:00,
2013-03-04 05:44:00,31.1,28.7,30.25,NE,45,1.1,4.5,90,0.00,,,0.00,NetBSD+Arduino,2013-03-04 13:44:00,
2013-03-04 05:49:00,31.1,28.8,30.25,North,0,0.7,4.5,91,0.00,,,0.00,NetBSD+Arduino,2013-03-04 13:49:00,
2013-03-04 05:54:00,31.0,28.7,30.25,NE,45,2.2,4.5,91,0.00,,,0.00,NetBSD+Arduino,2013-03-04 13:54:00,
2013-03-04 05:59:00,31.1,28.8,30.25,North,0,1.5,4.5,90,0.00,,,0.00,NetBSD+Arduino,2013-03-04 13:59:00,
2013-03-04 06:04:00,31.0,28.6,30.25,NE,45,2.0,6.0,90,0.00,,,0.00,NetBSD+Arduino,2013-03-04 14:04:00,
2013-03-04 06:09:00,30.9,28.5,30.25,NE,45,3.0,4.5,90,0.00,,,0.00,NetBSD+Arduino,2013-03-04 14:09:00,
2013-03-04 06:14:00,30.9,28.6,30.25,NE,45,1.5,6.0,91,0.00,,,0.00,NetBSD+Arduino,2013-03-04 14:14:00,
2013-03-04 06:19:00,30.8,28.5,30.25,North,0,1.5,6.0,91,0.00,,,0.00,NetBSD+Arduino,2013-03-04 14:19:00,
2013-03-04 06:24:00,30.6,28.5,30.25,NW,315,1.5,6.0,91,0.00,,,0.00,NetBSD+Arduino,2013-03-04 14:24:00,
2013-03-04 06:29:00,30.6,28.5,30.25,NE,45,1.1,6.0,91,0.00,,,0.00,NetBSD+Arduino,2013-03-04 14:29:00,
2013-03-04 06:34:00,30.6,28.4,30.25,North,0,1.5,6.0,91,0.00,,,0.00,NetBSD+Arduino,2013-03-04 14:34:00,
2013-03-04 06:39:00,30.8,28.4,30.24,North,0,1.1,4.5,90,0.00,,,0.00,NetBSD+Arduino,2013-03-04 14:39:00,
2013-03-04 06:44:00,30.8,28.3,30.24,North,0,0.7,6.0,90,0.00,,,0.00,NetBSD+Arduino,2013-03-04 14:44:00,
2013-03-04 06:49:00,30.8,28.3,30.24,North,0,2.6,6.0,90,0.00,,,0.00,NetBSD+Arduino,2013-03-04 14:49:00,
2013-03-04 06:54:00,30.9,28.4,30.23,NE,45,4.0,6.0,90,0.00,,,0.00,NetBSD+Arduino,2013-03-04 14:54:00,
2013-03-04 06:59:00,30.8,28.3,30.23,North,0,2.6,7.5,90,0.00,,,0.00,NetBSD+Arduino,2013-03-04 14:59:00,
2013-03-04 07:04:00,30.8,28.2,30.23,NE,45,3.0,6.0,89,0.00,,,0.00,NetBSD+Arduino,2013-03-04 15:04:00,
2013-03-04 07:09:00,30.9,28.3,30.23,North,0,3.0,4.5,90,0.00,,,0.00,NetBSD+Arduino,2013-03-04 15:09:00,
2013-03-04 07:14:00,30.9,28.3,30.23,NE,45,2.4,4.5,89,0.00,,,0.00,NetBSD+Arduino,2013-03-04 15:14:00,
2013-03-04 07:19:00,31.0,28.0,30.23,NE,45,1.5,6.0,88,0.00,,,0.00,NetBSD+Arduino,2013-03-04 15:19:00,
2013-03-04 07:24:00,31.0,28.2,30.23,North,0,1.9,6.0,89,0.00,,,0.00,NetBSD+Arduino,2013-03-04 15:24:00,
2013-03-04 07:29:00,31.2,27.5,30.23,North,0,2.0,6.0,86,0.00,,,0.00,NetBSD+Arduino,2013-03-04 15:29:00,
2013-03-04 07:34:00,31.4,28.6,30.23,NW,315,0.4,4.5,89,0.00,,,0.00,NetBSD+Arduino,2013-03-04 15:34:00,
2013-03-04 07:39:00,31.5,28.7,30.23,West,270,1.1,1.5,89,0.00,,,0.00,NetBSD+Arduino,2013-03-04 15:39:00,
2013-03-04 07:44:00,31.8,28.6,30.23,NW,315,1.0,1.5,87,0.00,,,0.00,NetBSD+Arduino,2013-03-04 15:44:00,
2013-03-04 07:49:00,32.1,28.6,30.23,NE,45,3.0,3.0,86,0.00,,,0.00,NetBSD+Arduino,2013-03-04 15:49:00,
2013-03-04 07:54:00,32.6,29.5,30.23,NE,45,2.2,4.5,88,0.00,,,0.00,NetBSD+Arduino,2013-03-04 15:54:00,
2013-03-04 07:59:00,33.0,28.2,30.23,NE,45,1.1,3.0,82,0.00,,,0.00,NetBSD+Arduino,2013-03-04 15:59:00,
2013-03-04 08:04:00,33.7,27.7,30.23,East,90,0.4,4.5,78,0.00,,,0.00,NetBSD+Arduino,2013-03-04 16:04:00,
2013-03-04 08:09:00,34.2,27.8,30.24,North,0,0.7,4.5,77,0.00,,,0.00,NetBSD+Arduino,2013-03-04 16:09:00,
2013-03-04 08:14:00,34.4,27.7,30.24,North,0,3.5,6.0,76,0.00,,,0.00,NetBSD+Arduino,2013-03-04 16:14:00,
2013-03-04 08:19:00,34.4,27.4,30.24,NE,45,3.4,6.0,75,0.00,,,0.00,NetBSD+Arduino,2013-03-04 16:19:00,
2013-03-04 08:24:00,34.5,27.4,30.24,North,0,3.4,4.5,75,0.00,,,0.00,NetBSD+Arduino,2013-03-04 16:24:00,
2013-03-04 08:29:00,34.8,27.7,30.23,West,270,0.0,4.5,75,0.00,,,0.00,NetBSD+Arduino,2013-03-04 16:29:00,
2013-03-04 08:34:00,34.9,27.9,30.23,West,270,0.0,3.0,75,0.00,,,0.00,NetBSD+Arduino,2013-03-04 16:34:00,
2013-03-04 08:39:00,35.3,26.9,30.23,NE,45,0.0,1.5,71,0.00,,,0.00,NetBSD+Arduino,2013-03-04 16:39:00,
2013-03-04 08:44:00,35.8,28.0,30.24,North,0,1.5,4.5,72,0.00,,,0.00,NetBSD+Arduino,2013-03-04 16:44:00,
2013-03-04 08:49:00,36.8,28.0,30.23,North,0,1.1,3.0,70,0.00,,,0.00,NetBSD+Arduino,2013-03-04 16:49:00,
2013-03-04 08:54:00,37.3,28.0,30.23,North,0,1.5,3.0,68,0.00,,,0.00,NetBSD+Arduino,2013-03-04 16:54:00,
2013-03-04 08:59:00,38.5,29.2,30.23,East,90,1.9,6.0,68,0.00,,,0.00,NetBSD+Arduino,2013-03-04 16:59:00,
2013-03-04 09:04:00,38.8,28.5,30.23,NW,315,0.7,6.0,66,0.00,,,0.00,NetBSD+Arduino,2013-03-04 17:04:00,
2013-03-04 09:09:00,38.6,28.2,30.23,North,0,3.0,6.0,65,0.00,,,0.00,NetBSD+Arduino,2013-03-04 17:09:00,
2013-03-04 09:14:00,38.8,28.7,30.22,North,0,0.0,4.5,66,0.00,,,0.00,NetBSD+Arduino,2013-03-04 17:14:00,
2013-03-04 09:19:00,38.3,28.9,30.22,NW,315,1.9,6.0,68,0.00,,,0.00,NetBSD+Arduino,2013-03-04 17:19:00,
2013-03-04 09:24:00,38.4,28.5,30.22,North,0,2.6,6.0,67,0.00,,,0.00,NetBSD+Arduino,2013-03-04 17:24:00,
2013-03-04 09:29:00,38.6,28.8,30.22,East,90,0.0,3.0,67,0.00,,,0.00,NetBSD+Arduino,2013-03-04 17:29:00,
2013-03-04 09:34:00,38.9,28.9,30.22,NE,45,2.6,4.5,67,0.00,,,0.00,NetBSD+Arduino,2013-03-04 17:34:00,
2013-03-04 09:39:00,39.1,28.9,30.22,NE,45,3.7,7.5,66,0.00,,,0.00,NetBSD+Arduino,2013-03-04 17:39:00,
2013-03-04 09:44:00,39.7,29.6,30.22,North,0,1.9,6.0,66,0.00,,,0.00,NetBSD+Arduino,2013-03-04 17:44:00,
2013-03-04 09:49:00,39.8,28.6,30.22,North,0,5.2,7.5,64,0.00,,,0.00,NetBSD+Arduino,2013-03-04 17:49:00,
2013-03-04 09:54:00,40.2,28.8,30.22,North,0,0.0,6.0,63,0.00,,,0.00,NetBSD+Arduino,2013-03-04 17:54:00,
2013-03-04 09:59:00,40.0,29.0,30.22,NE,45,3.0,7.5,64,0.00,,,0.00,NetBSD+Arduino,2013-03-04 17:59:00,
2013-03-04 10:04:00,40.2,28.8,30.21,NE,45,2.6,4.5,63,0.00,,,0.00,NetBSD+Arduino,2013-03-04 18:04:00,
2013-03-04 10:09:00,40.2,29.0,30.21,NE,45,2.2,7.5,63,0.00,,,0.00,NetBSD+Arduino,2013-03-04 18:09:00,
2013-03-04 10:14:00,40.4,28.8,30.21,North,0,1.9,6.0,62,0.00,,,0.00,NetBSD+Arduino,2013-03-04 18:14:00,
2013-03-04 10:19:00,40.5,28.6,30.20,North,0,2.2,7.5,62,0.00,,,0.00,NetBSD+Arduino,2013-03-04 18:19:00,
2013-03-04 10:24:00,41.5,29.3,30.20,North,0,3.5,6.0,61,0.00,,,0.00,NetBSD+Arduino,2013-03-04 18:24:00,
2013-03-04 10:29:00,42.1,29.1,30.20,North,0,2.4,7.5,59,0.00,,,0.00,NetBSD+Arduino,2013-03-04 18:29:00,
2013-03-04 10:30:00,42.3,28.8,30.20,North,0,1.9,7.5,58,0.00,,,0.00,NetBSD+Arduino,2013-03-04 18:30:00,
2013-03-04 10:31:00,42.5,28.6,30.20,East,90,5.5,9.0,57,0.00,,,0.00,NetBSD+Arduino,2013-03-04 18:31:00,
2013-03-04 10:34:00,42.8,29.5,30.20,North,0,2.4,11.9,59,0.00,,,0.00,NetBSD+Arduino,2013-03-04 18:34:00,
2013-03-04 10:35:00,43.0,29.0,30.20,NE,45,1.0,11.9,57,0.00,,,0.00,NetBSD+Arduino,2013-03-04 18:35:00,
2013-03-04 10:41:00,43.9,28.5,30.20,North,0,4.1,7.5,54,0.00,,,0.00,NetBSD+Arduino,2013-03-04 18:41:00,
2013-03-04 10:46:00,44.3,28.7,30.20,NE,45,3.0,7.5,54,0.00,,,0.00,NetBSD+Arduino,2013-03-04 18:46:00,
2013-03-04 10:51:00,44.7,29.6,30.20,NE,45,4.0,7.5,55,0.00,,,0.00,NetBSD+Arduino,2013-03-04 18:51:00,
2013-03-04 10:56:00,45.0,28.9,30.20,North,0,2.2,7.5,52,0.00,,,0.00,NetBSD+Arduino,2013-03-04 18:56:00,
2013-03-04 11:01:00,45.8,30.2,30.19,North,0,1.5,6.0,54,0.00,,,0.00,NetBSD+Arduino,2013-03-04 19:01:00,
2013-03-04 11:06:00,46.5,29.4,30.19,NE,45,3.0,4.5,51,0.00,,,0.00,NetBSD+Arduino,2013-03-04 19:06:00,
2013-03-04 11:11:00,47.2,30.4,30.19,North,0,1.1,7.5,51,0.00,,,0.00,NetBSD+Arduino,2013-03-04 19:11:00,
2013-03-04 11:17:00,48.3,29.9,30.19,North,0,2.5,7.5,48,0.00,,,0.00,NetBSD+Arduino,2013-03-04 19:17:00,
2013-03-04 11:22:00,48.8,30.6,30.18,NW,315,1.5,7.5,49,0.00,,,0.00,NetBSD+Arduino,2013-03-04 19:22:00,
2013-03-04 11:27:00,48.8,28.6,30.18,East,90,3.0,7.5,45,0.00,,,0.00,NetBSD+Arduino,2013-03-04 19:27:00,
2013-03-04 11:32:00,48.7,28.0,30.17,North,0,3.9,7.5,44,0.00,,,0.00,NetBSD+Arduino,2013-03-04 19:32:00,
2013-03-04 11:37:00,49.3,27.8,30.17,NE,45,7.0,7.5,43,0.00,,,0.00,NetBSD+Arduino,2013-03-04 19:37:00,
2013-03-04 11:43:00,49.7,27.6,30.17,East,90,2.6,7.5,42,0.00,,,0.00,NetBSD+Arduino,2013-03-04 19:43:00,
2013-03-04 11:48:00,50.1,28.6,30.17,NE,45,3.7,7.5,43,0.00,,,0.00,NetBSD+Arduino,2013-03-04 19:48:00,
2013-03-04 11:53:00,50.5,28.0,30.16,North,0,2.6,4.5,41,0.00,,,0.00,NetBSD+Arduino,2013-03-04 19:53:00,
2013-03-04 11:58:00,50.5,28.1,30.16,North,0,5.2,9.0,41,0.00,,,0.00,NetBSD+Arduino,2013-03-04 19:58:00,
2013-03-04 12:03:00,50.6,28.1,30.15,North,0,2.6,7.5,41,0.00,,,0.00,NetBSD+Arduino,2013-03-04 20:03:00,
2013-03-04 12:08:00,51.3,28.3,30.15,NE,45,2.6,7.5,40,0.00,,,0.00,NetBSD+Arduino,2013-03-04 20:08:00,
2013-03-04 12:13:00,51.2,29.0,30.15,NE,45,5.2,10.4,42,0.00,,,0.00,NetBSD+Arduino,2013-03-04 20:13:00,
2013-03-04 12:18:00,51.3,28.7,30.15,East,90,5.6,7.5,41,0.00,,,0.00,NetBSD+Arduino,2013-03-04 20:18:00,
2013-03-04 12:23:00,52.2,29.5,30.14,NE,45,5.6,9.0,41,0.00,,,0.00,NetBSD+Arduino,2013-03-04 20:23:00,
2013-03-04 12:28:00,51.6,27.7,30.15,NE,45,7.0,13.4,39,0.00,,,0.00,NetBSD+Arduino,2013-03-04 20:28:00,
2013-03-04 12:33:00,51.7,27.3,30.14,NE,45,2.5,13.4,38,0.00,,,0.00,NetBSD+Arduino,2013-03-04 20:33:00,
2013-03-04 12:39:00,51.8,27.0,30.14,NE,45,5.5,9.0,38,0.00,,,0.00,NetBSD+Arduino,2013-03-04 20:39:00,
2013-03-04 12:44:00,52.2,27.6,30.13,North,0,2.7,9.0,38,0.00,,,0.00,NetBSD+Arduino,2013-03-04 20:44:00,
2013-03-04 12:49:00,51.8,28.4,30.13,NE,45,4.8,10.4,40,0.00,,,0.00,NetBSD+Arduino,2013-03-04 20:49:00,
2013-03-04 12:54:00,52.7,27.9,30.13,NE,45,3.5,9.0,38,0.00,,,0.00,NetBSD+Arduino,2013-03-04 20:54:00,
2013-03-04 12:59:00,52.7,27.7,30.12,NE,45,6.7,9.0,37,0.00,,,0.00,NetBSD+Arduino,2013-03-04 20:59:00,
2013-03-04 13:04:00,52.8,27.4,30.11,North,0,7.5,9.0,37,0.00,,,0.00,NetBSD+Arduino,2013-03-04 21:04:00,
2013-03-04 13:09:00,52.4,27.4,30.11,North,0,5.5,11.9,37,0.00,,,0.00,NetBSD+Arduino,2013-03-04 21:09:00,
2013-03-04 13:14:00,52.2,26.6,30.10,East,90,7.1,9.0,36,0.00,,,0.00,NetBSD+Arduino,2013-03-04 21:14:00,
2013-03-04 13:19:00,52.0,27.3,30.10,NE,45,3.0,11.9,38,0.00,,,0.00,NetBSD+Arduino,2013-03-04 21:19:00,
2013-03-04 13:24:00,51.7,26.5,30.10,NE,45,8.5,14.9,37,0.00,,,0.00,NetBSD+Arduino,2013-03-04 21:24:00,
2013-03-04 13:29:00,51.3,25.9,30.10,East,90,3.6,11.9,37,0.00,,,0.00,NetBSD+Arduino,2013-03-04 21:29:00,
2013-03-04 13:34:00,51.5,26.4,30.10,NE,45,4.0,11.9,37,0.00,,,0.00,NetBSD+Arduino,2013-03-04 21:34:00,
2013-03-04 13:39:00,51.2,26.3,30.09,SE,135,6.3,13.4,37,0.00,,,0.00,NetBSD+Arduino,2013-03-04 21:39:00,
2013-03-04 13:44:00,51.6,27.2,30.09,East,90,6.0,9.0,38,0.00,,,0.00,NetBSD+Arduino,2013-03-04 21:44:00,
2013-03-04 13:49:00,51.1,26.9,30.09,NE,45,4.8,10.4,38,0.00,,,0.00,NetBSD+Arduino,2013-03-04 21:49:00,
2013-03-04 13:54:00,50.6,26.6,30.09,NE,45,5.5,10.4,39,0.00,,,0.00,NetBSD+Arduino,2013-03-04 21:54:00,
2013-03-04 14:00:00,51.8,27.5,30.08,North,0,3.5,11.9,38,0.00,,,0.00,NetBSD+Arduino,2013-03-04 22:00:00,
2013-03-04 14:05:00,52.1,28.0,30.07,North,0,4.5,10.4,39,0.00,,,0.00,NetBSD+Arduino,2013-03-04 22:05:00,
2013-03-04 14:11:00,51.0,26.3,30.07,East,90,9.3,13.4,38,0.00,,,0.00,NetBSD+Arduino,2013-03-04 22:11:00,
2013-03-04 14:16:00,51.9,26.8,30.07,NE,45,3.5,9.0,37,0.00,,,0.00,NetBSD+Arduino,2013-03-04 22:16:00,
2013-03-04 14:21:00,51.5,26.6,30.07,NE,45,4.5,10.4,37,0.00,,,0.00,NetBSD+Arduino,2013-03-04 22:21:00,
2013-03-04 14:26:00,51.7,26.7,30.07,NE,45,5.6,10.4,37,0.00,,,0.00,NetBSD+Arduino,2013-03-04 22:26:00,
2013-03-04 14:31:00,51.3,25.5,30.07,North,0,2.5,10.4,36,0.00,,,0.00,NetBSD+Arduino,2013-03-04 22:31:00,
2013-03-04 14:36:00,51.6,26.7,30.06,North,0,5.5,7.5,37,0.00,,,0.00,NetBSD+Arduino,2013-03-04 22:36:00,
2013-03-04 14:41:00,51.6,27.9,30.06,NE,45,11.2,13.4,39,0.00,,,0.00,NetBSD+Arduino,2013-03-04 22:41:00,
2013-03-04 14:46:00,51.5,27.0,30.06,NE,45,6.5,11.9,38,0.00,,,0.00,NetBSD+Arduino,2013-03-04 22:46:00,
2013-03-04 14:51:00,51.5,26.8,30.05,NE,45,6.0,10.4,38,0.00,,,0.00,NetBSD+Arduino,2013-03-04 22:51:00,
2013-03-04 14:56:00,51.7,26.7,30.05,NE,45,2.2,6.0,37,0.00,,,0.00,NetBSD+Arduino,2013-03-04 22:56:00,
2013-03-04 15:01:00,51.6,26.6,30.05,NE,45,2.2,10.4,37,0.00,,,0.00,NetBSD+Arduino,2013-03-04 23:01:00,
2013-03-04 15:07:00,51.8,26.2,30.05,North,0,4.1,7.5,36,0.00,,,0.00,NetBSD+Arduino,2013-03-04 23:07:00,
2013-03-04 15:12:00,51.5,26.4,30.05,NE,45,3.4,9.0,37,0.00,,,0.00,NetBSD+Arduino,2013-03-04 23:12:00,
2013-03-04 15:18:00,51.8,26.2,30.04,North,0,2.2,7.5,36,0.00,,,0.00,NetBSD+Arduino,2013-03-04 23:18:00,
2013-03-04 15:23:00,51.2,25.6,30.04,NE,45,9.4,11.9,36,0.00,,,0.00,NetBSD+Arduino,2013-03-04 23:23:00,
2013-03-04 15:29:00,51.6,26.3,30.03,East,90,4.0,10.4,37,0.00,,,0.00,NetBSD+Arduino,2013-03-04 23:29:00,
2013-03-04 15:34:00,51.5,25.4,30.02,NE,45,6.0,11.9,36,0.00,,,0.00,NetBSD+Arduino,2013-03-04 23:34:00,
2013-03-04 15:39:00,51.2,25.0,30.02,East,90,5.6,9.0,35,0.00,,,0.00,NetBSD+Arduino,2013-03-04 23:39:00,
2013-03-04 15:45:00,51.1,25.1,30.02,East,90,7.1,11.9,36,0.00,,,0.00,NetBSD+Arduino,2013-03-04 23:45:00,
2013-03-04 15:50:00,51.0,26.0,30.02,East,90,3.4,9.0,37,0.00,,,0.00,NetBSD+Arduino,2013-03-04 23:50:00,
2013-03-04 15:55:00,51.0,26.1,30.02,North,0,3.5,7.5,37,0.00,,,0.00,NetBSD+Arduino,2013-03-04 23:55:00,
2013-03-04 16:00:00,51.2,25.4,30.01,NE,45,3.0,9.0,36,0.00,,,0.00,NetBSD+Arduino,2013-03-05 00:00:00,
2013-03-04 16:05:00,51.1,26.4,30.01,NE,45,3.4,7.5,38,0.00,,,0.00,NetBSD+Arduino,2013-03-05 00:05:00,
2013-03-04 16:10:00,51.1,25.9,30.01,NE,45,4.0,7.5,37,0.00,,,0.00,NetBSD+Arduino,2013-03-05 00:10:00,
2013-03-04 16:16:00,51.1,25.7,30.00,East,90,1.9,7.5,36,0.00,,,0.00,NetBSD+Arduino,2013-03-05 00:16:00,
2013-03-04 16:21:00,50.9,26.2,30.00,NE,45,3.0,7.5,38,0.00,,,0.00,NetBSD+Arduino,2013-03-05 00:21:00,
2013-03-04 16:26:00,51.0,25.7,30.00,East,90,5.2,7.5,37,0.00,,,0.00,NetBSD+Arduino,2013-03-05 00:26:00,
2013-03-04 16:31:00,50.8,25.9,30.00,South,180,2.6,10.4,37,0.00,,,0.00,NetBSD+Arduino,2013-03-05 00:31:00,
2013-03-04 16:36:00,50.7,26.4,30.00,East,90,3.0,9.0,38,0.00,,,0.00,NetBSD+Arduino,2013-03-05 00:36:00,
2013-03-04 16:42:00,50.8,26.1,30.00,East,90,3.0,6.0,38,0.00,,,0.00,NetBSD+Arduino,2013-03-05 00:42:00,
2013-03-04 16:47:00,50.5,26.8,30.00,NE,45,2.5,4.5,39,0.00,,,0.00,NetBSD+Arduino,2013-03-05 00:47:00,
2013-03-04 16:52:00,50.6,25.4,30.00,NE,45,3.0,6.0,37,0.00,,,0.00,NetBSD+Arduino,2013-03-05 00:52:00,
2013-03-04 16:57:00,50.2,26.2,30.00,East,90,1.0,6.0,38,0.00,,,0.00,NetBSD+Arduino,2013-03-05 00:57:00,
2013-03-04 17:02:00,50.1,26.1,30.00,NE,45,3.5,6.0,38,0.00,,,0.00,NetBSD+Arduino,2013-03-05 01:02:00,
2013-03-04 17:07:00,50.0,26.0,30.00,East,90,2.2,6.0,38,0.00,,,0.00,NetBSD+Arduino,2013-03-05 01:07:00,
2013-03-04 17:12:00,50.0,24.8,29.99,NE,45,1.5,7.5,37,0.00,,,0.00,NetBSD+Arduino,2013-03-05 01:12:00,
2013-03-04 17:17:00,49.5,26.4,29.99,East,90,2.5,7.5,40,0.00,,,0.00,NetBSD+Arduino,2013-03-05 01:17:00,
2013-03-04 17:22:00,49.5,25.0,29.99,NE,45,1.5,7.5,38,0.00,,,0.00,NetBSD+Arduino,2013-03-05 01:22:00,
2013-03-04 17:28:00,49.7,24.7,29.99,East,90,3.5,7.5,37,0.00,,,0.00,NetBSD+Arduino,2013-03-05 01:28:00,
2013-03-04 17:33:00,49.3,25.6,29.99,South,180,3.5,7.5,39,0.00,,,0.00,NetBSD+Arduino,2013-03-05 01:33:00,
2013-03-04 17:38:00,48.9,25.5,29.99,East,90,1.5,6.0,39,0.00,,,0.00,NetBSD+Arduino,2013-03-05 01:38:00,
2013-03-04 17:43:00,48.8,25.4,29.99,NE,45,1.5,9.0,39,0.00,,,0.00,NetBSD+Arduino,2013-03-05 01:43:00,
2013-03-04 17:48:00,48.7,24.3,29.99,South,180,2.2,7.5,38,0.00,,,0.00,NetBSD+Arduino,2013-03-05 01:48:00,
2013-03-04 17:53:00,48.8,23.6,29.99,South,180,0.7,6.0,36,0.00,,,0.00,NetBSD+Arduino,2013-03-05 01:53:00,
2013-03-04 17:58:00,48.4,24.2,29.98,North,0,1.5,6.0,38,0.00,,,0.00,NetBSD+Arduino,2013-03-05 01:58:00,
2013-03-04 18:04:00,48.2,24.0,29.98,NE,45,4.5,9.0,38,0.00,,,0.00,NetBSD+Arduino,2013-03-05 02:04:00,
2013-03-04 18:09:00,47.9,24.1,29.99,East,90,1.5,6.0,38,0.00,,,0.00,NetBSD+Arduino,2013-03-05 02:09:00,
2013-03-04 18:14:00,47.6,24.2,29.98,NE,45,4.1,6.0,39,0.00,,,0.00,NetBSD+Arduino,2013-03-05 02:14:00,
2013-03-04 18:19:00,47.6,23.8,29.99,East,90,1.5,11.9,38,0.00,,,0.00,NetBSD+Arduino,2013-03-05 02:19:00,
2013-03-04 18:25:00,47.8,23.7,29.98,East,90,4.0,11.9,38,0.00,,,0.00,NetBSD+Arduino,2013-03-05 02:25:00,
2013-03-04 18:30:00,47.6,23.8,29.97,NE,45,1.5,7.5,38,0.00,,,0.00,NetBSD+Arduino,2013-03-05 02:30:00,
2013-03-04 18:35:00,47.4,24.1,29.98,East,90,2.6,10.4,39,0.00,,,0.00,NetBSD+Arduino,2013-03-05 02:35:00,
2013-03-04 18:40:00,47.0,25.5,29.97,East,90,1.9,9.0,42,0.00,,,0.00,NetBSD+Arduino,2013-03-05 02:40:00,
2013-03-04 18:45:00,46.8,24.1,29.97,South,180,3.5,9.0,40,0.00,,,0.00,NetBSD+Arduino,2013-03-05 02:45:00,
2013-03-04 18:51:00,46.6,24.3,29.97,East,90,6.5,7.5,41,0.00,,,0.00,NetBSD+Arduino,2013-03-05 02:51:00,
2013-03-04 18:56:00,46.6,24.1,29.97,East,90,2.6,9.0,40,0.00,,,0.00,NetBSD+Arduino,2013-03-05 02:56:00,
2013-03-04 19:01:00,46.6,23.7,29.97,NE,45,4.5,10.4,40,0.00,,,0.00,NetBSD+Arduino,2013-03-05 03:01:00,
2013-03-04 19:07:00,46.2,24.3,29.96,East,90,5.2,7.5,42,0.00,,,0.00,NetBSD+Arduino,2013-03-05 03:07:00,
2013-03-04 19:12:00,46.2,24.1,29.96,East,90,2.0,7.5,41,0.00,,,0.00,NetBSD+Arduino,2013-03-05 03:12:00,
2013-03-04 19:17:00,45.8,24.8,29.96,East,90,3.0,7.5,43,0.00,,,0.00,NetBSD+Arduino,2013-03-05 03:17:00,
2013-03-04 19:22:00,46.0,24.2,29.96,NE,45,2.5,9.0,42,0.00,,,0.00,NetBSD+Arduino,2013-03-05 03:22:00,
2013-03-04 19:28:00,45.8,24.3,29.96,NE,45,6.0,10.4,42,0.00,,,0.00,NetBSD+Arduino,2013-03-05 03:28:00,
2013-03-04 19:34:00,45.8,25.3,29.96,East,90,3.0,14.9,44,0.00,,,0.00,NetBSD+Arduino,2013-03-05 03:34:00,
2013-03-04 19:39:00,46.0,24.2,29.96,East,90,5.2,10.4,42,0.00,,,0.00,NetBSD+Arduino,2013-03-05 03:39:00,
2013-03-04 19:44:00,46.0,24.7,29.96,South,180,2.0,13.4,42,0.00,,,0.00,NetBSD+Arduino,2013-03-05 03:44:00,
2013-03-04 19:49:00,45.6,24.2,29.96,NE,45,5.0,10.4,42,0.00,,,0.00,NetBSD+Arduino,2013-03-05 03:49:00,
2013-03-04 19:55:00,45.5,24.4,29.95,East,90,5.0,10.4,43,0.00,,,0.00,NetBSD+Arduino,2013-03-05 03:55:00,
2013-03-04 20:01:00,45.7,23.9,29.95,NE,45,6.5,11.9,42,0.00,,,0.00,NetBSD+Arduino,2013-03-05 04:01:00,
2013-03-04 20:06:00,45.5,24.6,29.95,NE,45,4.5,13.4,43,0.00,,,0.00,NetBSD+Arduino,2013-03-05 04:06:00,
2013-03-04 20:12:00,45.3,24.2,29.95,NE,45,1.0,10.4,43,0.00,,,0.00,NetBSD+Arduino,2013-03-05 04:12:00,
2013-03-04 20:17:00,45.0,25.0,29.95,NE,45,3.7,7.5,45,0.00,,,0.00,NetBSD+Arduino,2013-03-05 04:17:00,
2013-03-04 20:22:00,44.8,24.3,29.95,South,180,1.0,10.4,44,0.00,,,0.00,NetBSD+Arduino,2013-03-05 04:22:00,
2013-03-04 20:27:00,44.9,23.7,29.95,NE,45,3.0,10.4,42,0.00,,,0.00,NetBSD+Arduino,2013-03-05 04:27:00,
2013-03-04 20:32:00,44.8,23.7,29.94,NE,45,1.9,7.5,43,0.00,,,0.00,NetBSD+Arduino,2013-03-05 04:32:00,
2013-03-04 20:38:00,44.7,24.0,29.94,North,0,2.5,7.5,43,0.00,,,0.00,NetBSD+Arduino,2013-03-05 04:38:00,
2013-03-04 20:43:00,44.5,23.9,29.94,North,0,1.0,6.0,43,0.00,,,0.00,NetBSD+Arduino,2013-03-05 04:43:00,
2013-03-04 20:48:00,44.2,24.2,29.94,NE,45,3.4,6.0,45,0.00,,,0.00,NetBSD+Arduino,2013-03-05 04:48:00,
2013-03-04 20:53:00,43.9,24.2,29.94,NE,45,1.5,7.5,45,0.00,,,0.00,NetBSD+Arduino,2013-03-05 04:53:00,
2013-03-04 20:58:00,43.9,24.2,29.95,NE,45,3.0,6.0,45,0.00,,,0.00,NetBSD+Arduino,2013-03-05 04:58:00,
2013-03-04 21:00:00,43.9,24.7,29.94,NE,45,4.0,6.0,46,0.00,,,0.00,NetBSD+Arduino,2013-03-05 05:00:00,
2013-03-04 21:01:00,43.9,24.5,29.94,NE,45,2.5,6.0,45,0.00,,,0.00,NetBSD+Arduino,2013-03-05 05:01:00,
2013-03-04 21:02:00,44.0,24.4,29.94,NE,45,3.0,7.5,45,0.00,,,0.00,NetBSD+Arduino,2013-03-05 05:02:00,
2013-03-04 21:07:00,43.9,24.5,29.94,NE,45,2.2,7.5,46,0.00,,,0.00,NetBSD+Arduino,2013-03-05 05:07:00,
2013-03-04 21:12:00,43.8,24.5,29.94,NE,45,1.5,6.0,46,0.00,,,0.00,NetBSD+Arduino,2013-03-05 05:12:00,
2013-03-04 21:17:00,43.8,24.2,29.94,NE,45,5.0,6.0,45,0.00,,,0.00,NetBSD+Arduino,2013-03-05 05:17:00,
2013-03-04 21:21:00,43.8,24.3,29.94,NE,45,1.0,6.0,45,0.00,,,0.00,NetBSD+Arduino,2013-03-05 05:21:00,
2013-03-04 21:26:00,43.7,24.5,29.94,NE,45,1.0,4.5,46,0.00,,,0.00,NetBSD+Arduino,2013-03-05 05:26:00,
2013-03-04 21:31:00,43.5,24.1,29.94,East,90,0.5,3.0,46,0.00,,,0.00,NetBSD+Arduino,2013-03-05 05:31:00,
2013-03-04 21:36:00,43.5,24.0,29.94,NE,45,2.0,4.5,45,0.00,,,0.00,NetBSD+Arduino,2013-03-05 05:36:00,
2013-03-04 21:41:00,43.2,24.1,29.94,NW,315,0.7,3.0,46,0.00,,,0.00,NetBSD+Arduino,2013-03-05 05:41:00,
2013-03-04 21:46:00,43.4,24.1,29.94,East,90,1.0,3.0,46,0.00,,,0.00,NetBSD+Arduino,2013-03-05 05:46:00,
2013-03-04 21:52:00,43.1,24.8,29.94,South,180,0.7,3.0,48,0.00,,,0.00,NetBSD+Arduino,2013-03-05 05:52:00,
2013-03-04 21:57:00,42.9,25.4,29.94,North,0,1.5,3.0,49,0.00,,,0.00,NetBSD+Arduino,2013-03-05 05:57:00,
2013-03-04 22:02:00,42.6,25.3,29.94,North,0,0.0,3.0,50,0.00,,,0.00,NetBSD+Arduino,2013-03-05 06:02:00,
2013-03-04 22:07:00,42.5,24.5,29.93,NE,45,1.1,3.0,48,0.00,,,0.00,NetBSD+Arduino,2013-03-05 06:07:00,
2013-03-04 22:12:00,42.5,24.4,29.93,NE,45,1.0,3.0,48,0.00,,,0.00,NetBSD+Arduino,2013-03-05 06:12:00,
2013-03-04 22:17:00,42.1,24.6,29.93,NE,45,1.5,3.0,49,0.00,,,0.00,NetBSD+Arduino,2013-03-05 06:17:00,
2013-03-04 22:22:00,42.1,24.4,29.93,NE,45,3.0,4.5,49,0.00,,,0.00,NetBSD+Arduino,2013-03-05 06:22:00,
2013-03-04 22:27:00,42.1,24.6,29.93,NE,45,1.5,4.5,49,0.00,,,0.00,NetBSD+Arduino,2013-03-05 06:27:00,
2013-03-04 22:32:00,42.0,24.5,29.92,NE,45,1.8,3.0,49,0.00,,,0.00,NetBSD+Arduino,2013-03-05 06:32:00,
2013-03-04 22:38:00,41.9,25.2,29.92,NE,45,1.5,4.5,51,0.00,,,0.00,NetBSD+Arduino,2013-03-05 06:38:00,
2013-03-04 22:43:00,41.7,25.4,29.92,North,0,1.0,3.0,52,0.00,,,0.00,NetBSD+Arduino,2013-03-05 06:43:00,
2013-03-04 22:48:00,41.8,25.0,29.92,NE,45,1.5,3.0,51,0.00,,,0.00,NetBSD+Arduino,2013-03-05 06:48:00,
2013-03-04 22:53:00,41.8,25.0,29.92,NE,45,3.0,3.0,51,0.00,,,0.00,NetBSD+Arduino,2013-03-05 06:53:00,
2013-03-04 22:58:00,42.2,23.6,29.91,NE,45,2.2,6.0,47,0.00,,,0.00,NetBSD+Arduino,2013-03-05 06:58:00,
2013-03-04 23:03:00,42.5,23.4,29.91,NE,45,0.5,6.0,46,0.00,,,0.00,NetBSD+Arduino,2013-03-05 07:03:00,
2013-03-04 23:08:00,42.1,24.6,29.92,NE,45,1.1,1.5,49,0.00,,,0.00,NetBSD+Arduino,2013-03-05 07:08:00,
2013-03-04 23:13:00,42.5,23.8,29.91,NE,45,0.7,4.5,47,0.00,,,0.00,NetBSD+Arduino,2013-03-05 07:13:00,
2013-03-04 23:18:00,42.0,24.6,29.92,North,0,3.0,3.0,49,0.00,,,0.00,NetBSD+Arduino,2013-03-05 07:18:00,
2013-03-04 23:23:00,42.0,24.8,29.91,NE,45,2.2,4.5,50,0.00,,,0.00,NetBSD+Arduino,2013-03-05 07:23:00,
2013-03-04 23:28:00,42.1,25.1,29.92,NE,45,1.5,3.0,50,0.00,,,0.00,NetBSD+Arduino,2013-03-05 07:28:00,
2013-03-04 23:33:00,42.6,23.7,29.91,NE,45,1.5,4.5,46,0.00,,,0.00,NetBSD+Arduino,2013-03-05 07:33:00,
2013-03-04 23:38:00,42.8,23.4,29.91,NW,315,0.0,4.5,45,0.00,,,0.00,NetBSD+Arduino,2013-03-05 07:38:00,
2013-03-04 23:43:00,42.6,23.6,29.90,South,180,0.5,4.5,46,0.00,,,0.00,NetBSD+Arduino,2013-03-05 07:43:00,
2013-03-04 23:48:00,42.8,23.3,29.90,East,90,1.5,4.5,45,0.00,,,0.00,NetBSD+Arduino,2013-03-05 07:48:00,
2013-03-04 23:53:00,42.7,23.5,29.90,NE,45,1.0,4.5,46,0.00,,,0.00,NetBSD+Arduino,2013-03-05 07:53:00,
2013-03-04 23:58:00,42.8,23.0,29.90,NE,45,1.0,4.5,45,0.00,,,0.00,NetBSD+Arduino,2013-03-05 07:58:00,